Time,TemperatureF,DewpointF,PressureIn,WindDirection,WindDirectionDegrees,WindSpeedMPH,WindSpeedGustMPH,Humidity,HourlyPrecipIn,Conditions,Clouds,dailyrainin,SoftwareType,DateUTC
2013-04-21 00:01:00,52.0,41.4,30.24,NE,43,0.0,0.0,67,0.00,,---,0.00,VWS V14.01,2013-04-21 05:01:00,
2013-04-21 00:06:00,51.8,41.2,30.24,NE,43,0.0,0.0,67,0.00,,---,0.00,VWS V14.01,2013-04-21 05:06:00,
2013-04-21 00:11:00,51.6,40.6,30.24,NE,43,0.0,0.0,66,0.00,,---,0.00,VWS V14.01,2013-04-21 05:11:00,
2013-04-21 00:16:00,51.7,40.7,30.24,NE,48,0.0,0.0,66,0.00,,---,0.00,VWS V14.01,2013-04-21 05:16:00,
2013-04-21 00:21:00,51.8,40.4,30.25,ENE,57,0.0,0.0,65,0.00,,---,0.00,VWS V14.01,2013-04-21 05:21:00,
2013-04-21 00:26:00,51.9,40.5,30.25,NE,53,0.0,0.0,65,0.00,,---,0.00,VWS V14.01,2013-04-21 05:26:00,
2013-04-21 00:31:00,52.0,40.2,30.25,NE,50,0.0,0.0,64,0.00,,---,0.00,VWS V14.01,2013-04-21 05:31:00,
2013-04-21 00:36:00,52.2,40.0,30.25,NE,52,0.0,0.0,63,0.00,,---,0.00,VWS V14.01,2013-04-21 05:36:00,
2013-04-21 00:41:00,52.4,40.2,30.24,NE,47,0.0,0.0,63,0.00,,---,0.00,VWS V14.01,2013-04-21 05:41:00,
2013-04-21 00:46:00,52.3,39.7,30.24,ENE,77,0.0,0.0,62,0.00,,---,0.00,VWS V14.01,2013-04-21 05:46:00,
2013-04-21 00:51:00,52.3,39.7,30.25,NE,48,0.0,0.0,62,0.00,,---,0.00,VWS V14.01,2013-04-21 05:51:00,
2013-04-21 00:56:00,52.3,39.7,30.25,NE,49,0.0,0.0,62,0.00,,---,0.00,VWS V14.01,2013-04-21 05:56:00,
2013-04-21 01:01:00,52.4,39.4,30.25,ENE,61,0.0,0.0,61,0.00,,---,0.00,VWS V14.01,2013-04-21 06:01:00,
2013-04-21 01:06:00,52.5,39.5,30.25,NE,56,0.0,0.0,61,0.00,,---,0.00,VWS V14.01,2013-04-21 06:06:00,
2013-04-21 01:11:00,52.5,39.0,30.25,ENE,63,0.0,0.0,60,0.00,,---,0.00,VWS V14.01,2013-04-21 06:11:00,
2013-04-21 01:16:00,52.6,39.1,30.25,NE,55,0.0,0.0,60,0.00,,---,0.00,VWS V14.01,2013-04-21 06:16:00,
2013-04-21 01:21:00,52.6,39.1,30.25,NE,49,0.0,0.0,60,0.00,,---,0.00,VWS V14.01,2013-04-21 06:21:00,
2013-04-21 01:26:00,52.5,39.0,30.24,NE,54,0.0,0.0,60,0.00,,---,0.00,VWS V14.01,2013-04-21 06:26:00,
2013-04-21 01:31:00,52.4,38.5,30.24,NE,53,0.0,0.0,59,0.00,,---,0.00,VWS V14.01,2013-04-21 06:31:00,
2013-04-21 01:36:00,52.4,38.9,30.25,ENE,78,0.0,0.0,60,0.00,,---,0.00,VWS V14.01,2013-04-21 06:36:00,
2013-04-21 01:41:00,52.3,38.4,30.25,NE,49,0.0,0.0,59,0.00,,---,0.00,VWS V14.01,2013-04-21 06:41:00,
2013-04-21 01:46:00,52.2,38.3,30.25,ENE,64,0.0,0.0,59,0.00,,---,0.00,VWS V14.01,2013-04-21 06:46:00,
2013-04-21 01:51:00,52.2,38.8,30.25,NE,39,0.0,0.0,60,0.00,,---,0.00,VWS V14.01,2013-04-21 06:51:00,
2013-04-21 01:56:00,52.0,38.6,30.25,NE,42,0.0,0.0,60,0.00,,---,0.00,VWS V14.01,2013-04-21 06:56:00,
2013-04-21 02:01:00,51.8,38.4,30.25,ENE,58,0.0,0.0,60,0.00,,---,0.00,VWS V14.01,2013-04-21 07:01:00,
2013-04-21 02:06:00,51.7,38.7,30.25,ENE,60,0.0,0.0,61,0.00,,---,0.00,VWS V14.01,2013-04-21 07:06:00,
2013-04-21 02:11:00,51.6,38.6,30.25,ENE,73,0.0,0.0,61,0.00,,---,0.00,VWS V14.01,2013-04-21 07:11:00,
2013-04-21 02:16:00,51.5,38.5,30.25,East,80,0.0,0.0,61,0.00,,---,0.00,VWS V14.01,2013-04-21 07:16:00,
2013-04-21 02:21:00,51.4,38.4,30.24,ENE,58,0.0,0.0,61,0.00,,---,0.00,VWS V14.01,2013-04-21 07:21:00,
2013-04-21 02:26:00,51.4,38.4,30.25,ENE,57,0.0,0.0,61,0.00,,---,0.00,VWS V14.01,2013-04-21 07:26:00,
2013-04-21 02:31:00,51.3,38.7,30.25,ENE,63,0.0,0.0,62,0.00,,---,0.00,VWS V14.01,2013-04-21 07:31:00,
2013-04-21 02:36:00,51.2,38.6,30.25,ENE,68,0.0,0.0,62,0.00,,---,0.00,VWS V14.01,2013-04-21 07:36:00,
2013-04-21 02:41:00,51.3,38.7,30.25,NE,48,0.0,0.0,62,0.00,,---,0.00,VWS V14.01,2013-04-21 07:41:00,
2013-04-21 02:46:00,51.2,38.6,30.25,NE,53,0.0,0.0,62,0.00,,---,0.00,VWS V14.01,2013-04-21 07:46:00,
2013-04-21 02:51:00,51.1,38.5,30.25,ENE,67,0.0,0.0,62,0.00,,---,0.00,VWS V14.01,2013-04-21 07:51:00,
2013-04-21 02:56:00,51.0,38.5,30.25,ENE,59,0.0,0.0,62,0.00,,---,0.00,VWS V14.01,2013-04-21 07:56:00,
2013-04-21 03:01:00,51.0,38.5,30.24,NE,53,0.0,0.0,62,0.00,,---,0.00,VWS V14.01,2013-04-21 08:01:00,
2013-04-21 03:06:00,51.0,38.9,30.24,ENE,69,0.0,0.0,63,0.00,,---,0.00,VWS V14.01,2013-04-21 08:06:00,
2013-04-21 03:11:00,50.9,38.4,30.25,ENE,62,0.0,0.0,62,0.00,,---,0.00,VWS V14.01,2013-04-21 08:11:00,
2013-04-21 03:16:00,50.9,38.4,30.25,NE,49,0.0,0.0,62,0.00,,---,0.00,VWS V14.01,2013-04-21 08:16:00,
2013-04-21 03:21:00,50.8,38.3,30.25,ENE,73,0.0,0.0,62,0.00,,---,0.00,VWS V14.01,2013-04-21 08:21:00,
2013-04-21 03:26:00,50.8,38.7,30.25,NE,42,0.0,0.0,63,0.00,,---,0.00,VWS V14.01,2013-04-21 08:26:00,
2013-04-21 03:31:00,50.7,38.6,30.25,ENE,61,0.0,0.0,63,0.00,,---,0.00,VWS V14.01,2013-04-21 08:31:00,
2013-04-21 03:36:00,50.7,38.2,30.25,ENE,63,0.0,0.0,62,0.00,,---,0.00,VWS V14.01,2013-04-21 08:36:00,
2013-04-21 03:41:00,50.6,38.5,30.25,NE,54,0.0,0.0,63,0.00,,---,0.00,VWS V14.01,2013-04-21 08:41:00,
2013-04-21 03:46:00,50.6,38.5,30.25,ENE,66,0.0,0.0,63,0.00,,---,0.00,VWS V14.01,2013-04-21 08:46:00,
2013-04-21 03:51:00,50.5,38.4,30.25,NE,55,0.0,0.0,63,0.00,,---,0.00,VWS V14.01,2013-04-21 08:51:00,
2013-04-21 03:55:00,50.5,38.0,30.25,East,82,0.0,0.0,62,0.00,,---,0.00,VWS V14.01,2013-04-21 08:55:00,
2013-04-21 04:00:00,50.4,37.9,30.25,ENE,64,0.0,0.0,62,0.00,,---,0.00,VWS V14.01,2013-04-21 09:00:00,
2013-04-21 04:05:00,50.2,38.1,30.25,NE,47,0.0,0.0,63,0.00,,---,0.00,VWS V14.01,2013-04-21 09:05:00,
2013-04-21 04:10:00,50.1,38.0,30.25,ENE,66,0.0,0.0,63,0.00,,---,0.00,VWS V14.01,2013-04-21 09:10:00,
2013-04-21 04:15:00,50.0,37.9,30.25,ENE,71,0.0,0.0,63,0.00,,---,0.00,VWS V14.01,2013-04-21 09:15:00,
2013-04-21 04:20:00,49.9,37.8,30.25,NE,55,0.0,0.0,63,0.00,,---,0.00,VWS V14.01,2013-04-21 09:20:00,
2013-04-21 04:25:00,49.7,37.6,30.25,East,79,0.0,0.0,63,0.00,,---,0.00,VWS V14.01,2013-04-21 09:25:00,
2013-04-21 04:30:00,49.6,37.5,30.25,NE,51,0.0,0.0,63,0.00,,---,0.00,VWS V14.01,2013-04-21 09:30:00,
2013-04-21 04:35:00,49.5,37.8,30.25,ENE,62,0.0,0.0,64,0.00,,---,0.00,VWS V14.01,2013-04-21 09:35:00,
2013-04-21 04:40:00,49.2,37.6,30.25,NE,46,0.0,0.0,64,0.00,,---,0.00,VWS V14.01,2013-04-21 09:40:00,
2013-04-21 04:45:00,49.2,37.6,30.25,ENE,57,0.0,0.0,64,0.00,,---,0.00,VWS V14.01,2013-04-21 09:45:00,
2013-04-21 04:50:00,49.1,37.5,30.26,ENE,57,0.0,0.0,64,0.00,,---,0.00,VWS V14.01,2013-04-21 09:50:00,
2013-04-21 04:55:00,49.0,37.8,30.26,NE,43,0.0,0.0,65,0.00,,---,0.00,VWS V14.01,2013-04-21 09:55:00,
2013-04-21 05:00:00,48.8,37.6,30.26,NE,51,0.0,0.0,65,0.00,,---,0.00,VWS V14.01,2013-04-21 10:00:00,
2013-04-21 05:05:00,48.7,37.5,30.26,NE,50,0.0,0.0,65,0.00,,---,0.00,VWS V14.01,2013-04-21 10:05:00,
2013-04-21 05:10:00,48.7,37.5,30.26,NE,53,0.0,0.0,65,0.00,,---,0.00,VWS V14.01,2013-04-21 10:10:00,
2013-04-21 05:15:00,48.6,37.8,30.26,ENE,60,0.0,0.0,66,0.00,,---,0.00,VWS V14.01,2013-04-21 10:15:00,
2013-04-21 05:20:00,48.5,37.7,30.26,NE,53,0.0,0.0,66,0.00,,---,0.00,VWS V14.01,2013-04-21 10:20:00,
2013-04-21 05:25:00,48.4,37.6,30.26,NE,51,0.0,0.0,66,0.00,,---,0.00,VWS V14.01,2013-04-21 10:25:00,
2013-04-21 05:30:00,48.2,37.8,30.26,NE,55,0.0,0.0,67,0.00,,---,0.00,VWS V14.01,2013-04-21 10:30:00,
2013-04-21 05:35:00,48.1,37.7,30.26,NE,55,0.0,0.0,67,0.00,,---,0.00,VWS V14.01,2013-04-21 10:35:00,
2013-04-21 05:40:00,47.9,37.5,30.26,ENE,57,0.0,0.0,67,0.00,,---,0.00,VWS V14.01,2013-04-21 10:40:00,
2013-04-21 05:45:00,47.7,37.7,30.26,NE,53,0.0,0.0,68,0.00,,---,0.00,VWS V14.01,2013-04-21 10:45:00,
2013-04-21 05:50:00,47.6,38.0,30.27,NE,54,0.0,0.0,69,0.00,,---,0.00,VWS V14.01,2013-04-21 10:50:00,
2013-04-21 05:55:00,47.5,37.8,30.27,NE,42,0.0,0.0,69,0.00,,---,0.00,VWS V14.01,2013-04-21 10:55:00,
2013-04-21 06:00:00,47.4,38.1,30.27,ENE,63,0.0,0.0,70,0.00,,---,0.00,VWS V14.01,2013-04-21 11:00:00,
2013-04-21 06:05:00,47.4,38.1,30.27,NE,41,0.0,0.0,70,0.00,,---,0.00,VWS V14.01,2013-04-21 11:05:00,
2013-04-21 06:10:00,47.3,38.4,30.27,NE,36,0.0,0.0,71,0.00,,---,0.00,VWS V14.01,2013-04-21 11:10:00,
2013-04-21 06:15:00,47.1,38.2,30.27,NE,53,0.0,0.0,71,0.00,,---,0.00,VWS V14.01,2013-04-21 11:15:00,
2013-04-21 06:20:00,46.9,38.0,30.28,NE,40,0.0,0.0,71,0.00,,---,0.00,VWS V14.01,2013-04-21 11:20:00,
2013-04-21 06:25:00,46.8,37.9,30.28,NE,42,0.0,0.0,71,0.00,,---,0.00,VWS V14.01,2013-04-21 11:25:00,
2013-04-21 06:30:00,46.8,38.3,30.28,NE,46,0.0,0.0,72,0.00,,---,0.00,VWS V14.01,2013-04-21 11:30:00,
2013-04-21 06:35:00,46.8,38.3,30.28,NE,51,0.0,0.0,72,0.00,,---,0.00,VWS V14.01,2013-04-21 11:35:00,
2013-04-21 06:40:00,46.8,38.3,30.28,ENE,77,0.0,0.0,72,0.00,,---,0.00,VWS V14.01,2013-04-21 11:40:00,
2013-04-21 06:45:00,47.0,38.1,30.29,NE,51,0.0,0.0,71,0.00,,---,0.00,VWS V14.01,2013-04-21 11:45:00,
2013-04-21 06:50:00,47.3,38.4,30.29,NE,52,0.0,0.0,71,0.00,,---,0.00,VWS V14.01,2013-04-21 11:50:00,
2013-04-21 06:55:00,47.6,38.7,30.29,ENE,64,0.0,0.0,71,0.00,,---,0.00,VWS V14.01,2013-04-21 11:55:00,
2013-04-21 07:00:00,48.0,38.7,30.30,NE,48,0.0,0.0,70,0.00,,---,0.00,VWS V14.01,2013-04-21 12:00:00,
2013-04-21 07:05:00,48.3,38.6,30.30,ENE,59,0.0,0.0,69,0.00,,---,0.00,VWS V14.01,2013-04-21 12:05:00,
2013-04-21 07:10:00,48.5,38.4,30.30,NE,53,0.0,0.0,68,0.00,,---,0.00,VWS V14.01,2013-04-21 12:10:00,
2013-04-21 07:15:00,48.6,38.5,30.30,NE,50,0.0,0.0,68,0.00,,---,0.00,VWS V14.01,2013-04-21 12:15:00,
2013-04-21 07:20:00,48.9,38.8,30.30,NE,51,0.0,0.0,68,0.00,,---,0.00,VWS V14.01,2013-04-21 12:20:00,
2013-04-21 07:25:00,49.4,38.5,30.30,ENE,59,0.0,0.0,66,0.00,,---,0.00,VWS V14.01,2013-04-21 12:25:00,
2013-04-21 07:30:00,49.9,39.0,30.31,NE,53,0.0,0.0,66,0.00,,---,0.00,VWS V14.01,2013-04-21 12:30:00,
2013-04-21 07:35:00,50.6,38.9,30.31,NNE,33,0.0,0.0,64,0.00,,---,0.00,VWS V14.01,2013-04-21 12:35:00,
2013-04-21 07:40:00,51.2,38.6,30.31,NE,52,0.0,0.0,62,0.00,,---,0.00,VWS V14.01,2013-04-21 12:40:00,
2013-04-21 07:45:00,51.7,39.1,30.31,NE,51,0.0,0.0,62,0.00,,---,0.00,VWS V14.01,2013-04-21 12:45:00,
2013-04-21 07:50:00,52.1,38.7,30.31,ENE,66,0.0,0.0,60,0.00,,---,0.00,VWS V14.01,2013-04-21 12:50:00,
2013-04-21 07:55:00,52.3,38.8,30.31,ENE,71,0.0,0.0,60,0.00,,---,0.00,VWS V14.01,2013-04-21 12:55:00,
2013-04-21 08:00:00,52.5,38.6,30.31,ENE,71,0.0,0.0,59,0.00,,---,0.00,VWS V14.01,2013-04-21 13:00:00,
2013-04-21 08:05:00,52.5,39.5,30.31,ENE,74,0.0,0.0,61,0.00,,---,0.00,VWS V14.01,2013-04-21 13:05:00,
2013-04-21 08:10:00,52.6,39.1,30.31,NE,49,0.0,0.0,60,0.00,,---,0.00,VWS V14.01,2013-04-21 13:10:00,
2013-04-21 08:15:00,52.7,38.8,30.32,ENE,57,0.0,0.0,59,0.00,,---,0.00,VWS V14.01,2013-04-21 13:15:00,
2013-04-21 08:20:00,52.8,38.9,30.32,East,80,0.0,0.0,59,0.00,,---,0.00,VWS V14.01,2013-04-21 13:20:00,
2013-04-21 08:25:00,53.0,39.5,30.32,ENE,71,0.0,0.0,60,0.00,,---,0.00,VWS V14.01,2013-04-21 13:25:00,
2013-04-21 08:30:00,53.2,39.3,30.32,East,92,0.0,0.0,59,0.00,,---,0.00,VWS V14.01,2013-04-21 13:30:00,
2013-04-21 08:35:00,53.3,39.3,30.32,ENE,63,0.0,0.0,59,0.00,,---,0.00,VWS V14.01,2013-04-21 13:35:00,
2013-04-21 08:40:00,53.5,40.4,30.32,ENE,74,0.0,0.0,61,0.00,,---,0.00,VWS V14.01,2013-04-21 13:40:00,
2013-04-21 08:45:00,53.7,40.6,30.32,NE,44,0.0,0.0,61,0.00,,---,0.00,VWS V14.01,2013-04-21 13:45:00,
2013-04-21 08:50:00,53.9,39.9,30.32,NE,49,0.0,0.0,59,0.00,,---,0.00,VWS V14.01,2013-04-21 13:50:00,
2013-04-21 08:55:00,54.0,40.4,30.33,NE,43,0.0,0.0,60,0.00,,---,0.00,VWS V14.01,2013-04-21 13:55:00,
2013-04-21 09:00:00,54.2,40.2,30.33,NE,51,0.0,0.0,59,0.00,,---,0.00,VWS V14.01,2013-04-21 14:00:00,
2013-04-21 09:05:00,54.4,40.0,30.33,ENE,63,0.0,0.0,58,0.00,,---,0.00,VWS V14.01,2013-04-21 14:05:00,
2013-04-21 09:10:00,54.7,41.5,30.33,ENE,69,0.0,0.0,61,0.00,,---,0.00,VWS V14.01,2013-04-21 14:10:00,
2013-04-21 09:15:00,55.4,40.9,30.32,NE,42,0.0,0.0,58,0.00,,---,0.00,VWS V14.01,2013-04-21 14:15:00,
2013-04-21 09:20:00,56.2,40.7,30.33,ENE,71,0.0,0.0,56,0.00,,---,0.00,VWS V14.01,2013-04-21 14:20:00,
2013-04-21 09:25:00,56.8,40.3,30.32,NNE,30,0.0,0.0,54,0.00,,---,0.00,VWS V14.01,2013-04-21 14:25:00,
2013-04-21 09:30:00,57.5,41.0,30.33,East,84,0.0,0.0,54,0.00,,---,0.00,VWS V14.01,2013-04-21 14:30:00,
2013-04-21 09:35:00,57.9,40.4,30.32,ENE,75,0.0,0.0,52,0.00,,---,0.00,VWS V14.01,2013-04-21 14:35:00,
2013-04-21 09:40:00,58.3,40.8,30.32,East,87,0.0,0.0,52,0.00,,---,0.00,VWS V14.01,2013-04-21 14:40:00,
2013-04-21 09:45:00,58.3,41.3,30.32,ENE,67,0.0,0.0,53,0.00,,---,0.00,VWS V14.01,2013-04-21 14:45:00,
2013-04-21 09:50:00,58.8,39.7,30.33,NE,40,0.0,0.0,49,0.00,,---,0.00,VWS V14.01,2013-04-21 14:50:00,
2013-04-21 09:55:00,59.3,40.7,30.33,ENE,62,0.0,0.0,50,0.00,,---,0.00,VWS V14.01,2013-04-21 14:55:00,
2013-04-21 10:00:00,60.1,39.8,30.33,East,79,0.0,0.0,47,0.00,,---,0.00,VWS V14.01,2013-04-21 15:00:00,
2013-04-21 10:05:00,60.3,40.5,30.33,East,79,0.0,0.0,48,0.00,,---,0.00,VWS V14.01,2013-04-21 15:05:00,
2013-04-21 10:10:00,60.7,40.4,30.32,NE,53,0.0,0.0,47,0.00,,---,0.00,VWS V14.01,2013-04-21 15:10:00,
2013-04-21 10:15:00,61.4,39.9,30.32,ENE,63,0.0,0.0,45,0.00,,---,0.00,VWS V14.01,2013-04-21 15:15:00,
2013-04-21 10:20:00,61.7,41.3,30.32,East,81,0.0,0.0,47,0.00,,---,0.00,VWS V14.01,2013-04-21 15:20:00,
2013-04-21 10:25:00,62.3,39.5,30.33,ENE,71,0.0,0.0,43,0.00,,---,0.00,VWS V14.01,2013-04-21 15:25:00,
2013-04-21 10:30:00,62.6,40.4,30.32,ESE,109,0.0,0.0,44,0.00,,---,0.00,VWS V14.01,2013-04-21 15:30:00,
2013-04-21 10:35:00,62.9,39.5,30.32,East,87,0.0,0.0,42,0.00,,---,0.00,VWS V14.01,2013-04-21 15:35:00,
2013-04-21 10:40:00,63.1,40.3,30.32,East,87,0.0,0.0,43,0.00,,---,0.00,VWS V14.01,2013-04-21 15:40:00,
2013-04-21 10:45:00,63.3,41.0,30.33,NE,49,0.0,0.0,44,0.00,,---,0.00,VWS V14.01,2013-04-21 15:45:00,
2013-04-21 10:50:00,63.5,41.2,30.32,NE,42,0.0,0.0,44,0.00,,---,0.00,VWS V14.01,2013-04-21 15:50:00,
2013-04-21 10:55:00,63.9,39.8,30.32,NNE,13,0.0,0.0,41,0.00,,---,0.00,VWS V14.01,2013-04-21 15:55:00,
2013-04-21 11:00:00,64.5,40.3,30.32,East,95,0.0,0.0,41,0.00,,---,0.00,VWS V14.01,2013-04-21 16:00:00,
2013-04-21 11:05:00,64.8,39.9,30.32,NE,40,0.0,0.0,40,0.00,,---,0.00,VWS V14.01,2013-04-21 16:05:00,
2013-04-21 11:10:00,65.0,40.8,30.32,ENE,73,0.0,0.0,41,0.00,,---,0.00,VWS V14.01,2013-04-21 16:10:00,
2013-04-21 11:15:00,64.9,40.0,30.31,NE,53,0.0,0.0,40,0.00,,---,0.00,VWS V14.01,2013-04-21 16:15:00,
2013-04-21 11:20:00,65.0,39.5,30.31,East,80,0.0,0.0,39,0.00,,---,0.00,VWS V14.01,2013-04-21 16:20:00,
2013-04-21 11:25:00,65.0,40.8,30.31,NE,54,0.0,0.0,41,0.00,,---,0.00,VWS V14.01,2013-04-21 16:25:00,
2013-04-21 11:30:00,65.8,42.1,30.30,East,80,0.0,0.0,42,0.00,,---,0.00,VWS V14.01,2013-04-21 16:30:00,
2013-04-21 11:35:00,65.7,40.7,30.30,NNE,32,0.0,0.0,40,0.00,,---,0.00,VWS V14.01,2013-04-21 16:35:00,
2013-04-21 11:40:00,65.5,40.6,30.30,NE,55,0.0,0.0,40,0.00,,---,0.00,VWS V14.01,2013-04-21 16:40:00,
2013-04-21 11:45:00,66.1,41.1,30.30,NE,42,0.0,0.0,40,0.00,,---,0.00,VWS V14.01,2013-04-21 16:45:00,
2013-04-21 11:50:00,66.0,39.7,30.30,NE,37,0.0,0.0,38,0.00,,---,0.00,VWS V14.01,2013-04-21 16:50:00,
2013-04-21 11:55:00,65.5,41.2,30.29,ENE,60,0.0,0.0,41,0.00,,---,0.00,VWS V14.01,2013-04-21 16:55:00,
2013-04-21 12:00:00,65.9,38.9,30.29,NNE,22,0.0,0.0,37,0.00,,---,0.00,VWS V14.01,2013-04-21 17:00:00,
2013-04-21 12:05:00,65.8,38.8,30.29,ENE,59,0.0,0.0,37,0.00,,---,0.00,VWS V14.01,2013-04-21 17:05:00,
2013-04-21 12:10:00,65.9,39.6,30.28,North,360,0.0,0.0,38,0.00,,---,0.00,VWS V14.01,2013-04-21 17:10:00,
2013-04-21 12:14:00,65.8,38.8,30.28,NE,43,0.0,0.0,37,0.00,,---,0.00,VWS V14.01,2013-04-21 17:14:00,
2013-04-21 12:19:00,65.9,40.9,30.28,ENE,58,0.0,0.0,40,0.00,,---,0.00,VWS V14.01,2013-04-21 17:19:00,
2013-04-21 12:24:00,66.4,39.4,30.28,NE,46,0.0,0.0,37,0.00,,---,0.00,VWS V14.01,2013-04-21 17:24:00,
2013-04-21 12:29:00,66.1,39.1,30.27,NNE,31,0.0,0.0,37,0.00,,---,0.00,VWS V14.01,2013-04-21 17:29:00,
2013-04-21 12:34:00,66.3,40.0,30.27,NNE,32,0.0,0.0,38,0.00,,---,0.00,VWS V14.01,2013-04-21 17:34:00,
2013-04-21 12:39:00,66.9,39.8,30.27,ENE,57,0.0,0.0,37,0.00,,---,0.00,VWS V14.01,2013-04-21 17:39:00,
2013-04-21 12:44:00,67.0,37.7,30.27,ENE,72,0.0,0.0,34,0.00,,---,0.00,VWS V14.01,2013-04-21 17:44:00,
2013-04-21 12:49:00,67.0,37.7,30.26,NE,54,0.0,0.0,34,0.00,,---,0.00,VWS V14.01,2013-04-21 17:49:00,
2013-04-21 12:54:00,66.9,39.1,30.26,NE,36,0.0,0.0,36,0.00,,---,0.00,VWS V14.01,2013-04-21 17:54:00,
2013-04-21 12:59:00,67.5,37.4,30.26,East,83,0.0,0.0,33,0.00,,---,0.00,VWS V14.01,2013-04-21 17:59:00,
2013-04-21 13:04:00,67.3,37.2,30.26,NNE,24,0.0,0.0,33,0.00,,---,0.00,VWS V14.01,2013-04-21 18:04:00,
2013-04-21 13:09:00,67.5,38.9,30.25,NNE,32,0.0,0.0,35,0.00,,---,0.00,VWS V14.01,2013-04-21 18:09:00,
2013-04-21 13:14:00,67.8,39.9,30.25,ENE,67,0.0,0.0,36,0.00,,---,0.00,VWS V14.01,2013-04-21 18:14:00,
2013-04-21 13:19:00,68.0,40.1,30.25,NE,53,0.0,0.0,36,0.00,,---,0.00,VWS V14.01,2013-04-21 18:19:00,
2013-04-21 13:24:00,68.1,41.6,30.24,NNE,27,0.0,0.0,38,0.00,,---,0.00,VWS V14.01,2013-04-21 18:24:00,
2013-04-21 13:29:00,68.4,39.0,30.25,ENE,67,0.0,0.0,34,0.00,,---,0.00,VWS V14.01,2013-04-21 18:29:00,
2013-04-21 13:34:00,69.0,41.7,30.24,ENE,75,0.0,0.0,37,0.00,,---,0.00,VWS V14.01,2013-04-21 18:34:00,
2013-04-21 13:39:00,68.7,40.7,30.24,NE,49,0.0,0.0,36,0.00,,---,0.00,VWS V14.01,2013-04-21 18:39:00,
2013-04-21 13:44:00,68.9,40.9,30.24,NE,46,0.0,0.0,36,0.00,,---,0.00,VWS V14.01,2013-04-21 18:44:00,
2013-04-21 13:49:00,69.4,40.6,30.24,ENE,57,0.0,0.0,35,0.00,,---,0.00,VWS V14.01,2013-04-21 18:49:00,
2013-04-21 13:54:00,69.6,41.5,30.24,NE,52,0.0,0.0,36,0.00,,---,0.00,VWS V14.01,2013-04-21 18:54:00,
2013-04-21 13:59:00,69.5,39.2,30.24,NE,51,0.0,0.0,33,0.00,,---,0.00,VWS V14.01,2013-04-21 18:59:00,
2013-04-21 14:04:00,68.6,37.6,30.24,North,5,0.0,0.0,32,0.00,,---,0.00,VWS V14.01,2013-04-21 19:04:00,
2013-04-21 14:09:00,68.8,40.1,30.23,NE,52,0.0,0.0,35,0.00,,---,0.00,VWS V14.01,2013-04-21 19:09:00,
2013-04-21 14:14:00,68.9,39.4,30.23,North,360,0.0,0.0,34,0.00,,---,0.00,VWS V14.01,2013-04-21 19:14:00,
2013-04-21 14:19:00,69.4,39.1,30.23,West,277,0.0,0.0,33,0.00,,---,0.00,VWS V14.01,2013-04-21 19:19:00,
2013-04-21 14:24:00,69.4,38.3,30.23,NE,51,0.0,0.0,32,0.00,,---,0.00,VWS V14.01,2013-04-21 19:24:00,
2013-04-21 14:29:00,69.5,37.6,30.22,WNW,282,0.0,0.0,31,0.00,,---,0.00,VWS V14.01,2013-04-21 19:29:00,
2013-04-21 14:34:00,69.6,37.7,30.22,NNE,28,0.0,0.0,31,0.00,,---,0.00,VWS V14.01,2013-04-21 19:34:00,
2013-04-21 14:39:00,69.7,37.7,30.21,NE,50,0.0,0.0,31,0.00,,---,0.00,VWS V14.01,2013-04-21 19:39:00,
2013-04-21 14:44:00,69.5,38.4,30.21,ENE,57,0.0,0.0,32,0.00,,---,0.00,VWS V14.01,2013-04-21 19:44:00,
2013-04-21 14:49:00,69.9,37.1,30.21,NE,51,0.0,0.0,30,0.00,,---,0.00,VWS V14.01,2013-04-21 19:49:00,
2013-04-21 14:54:00,69.7,37.7,30.21,ENE,62,0.0,0.0,31,0.00,,---,0.00,VWS V14.01,2013-04-21 19:54:00,
2013-04-21 14:59:00,69.5,38.4,30.21,NE,36,0.0,0.0,32,0.00,,---,0.00,VWS V14.01,2013-04-21 19:59:00,
2013-04-21 15:04:00,69.3,38.2,30.20,ENE,70,0.0,0.0,32,0.00,,---,0.00,VWS V14.01,2013-04-21 20:04:00,
2013-04-21 15:09:00,69.4,36.7,30.20,NE,51,0.0,0.0,30,0.00,,---,0.00,VWS V14.01,2013-04-21 20:09:00,
2013-04-21 15:14:00,69.1,37.2,30.20,West,281,0.0,0.0,31,0.00,,---,0.00,VWS V14.01,2013-04-21 20:14:00,
2013-04-21 15:19:00,69.8,38.6,30.19,East,80,0.0,0.0,32,0.00,,---,0.00,VWS V14.01,2013-04-21 20:19:00,
2013-04-21 15:24:00,69.4,37.5,30.19,East,80,0.0,0.0,31,0.00,,---,0.00,VWS V14.01,2013-04-21 20:24:00,
2013-04-21 15:29:00,69.2,36.5,30.19,NNE,27,0.0,0.0,30,0.00,,---,0.00,VWS V14.01,2013-04-21 20:29:00,
2013-04-21 15:34:00,69.0,36.3,30.19,NE,38,0.0,0.0,30,0.00,,---,0.00,VWS V14.01,2013-04-21 20:34:00,
2013-04-21 15:39:00,68.5,37.5,30.18,NE,35,0.0,0.0,32,0.00,,---,0.00,VWS V14.01,2013-04-21 20:39:00,
2013-04-21 15:44:00,68.1,35.5,30.18,NE,53,0.0,0.0,30,0.00,,---,0.00,VWS V14.01,2013-04-21 20:44:00,
2013-04-21 15:49:00,67.6,36.7,30.18,NNE,29,0.0,0.0,32,0.00,,---,0.00,VWS V14.01,2013-04-21 20:49:00,
2013-04-21 15:54:00,67.4,36.5,30.18,NE,50,0.0,0.0,32,0.00,,---,0.00,VWS V14.01,2013-04-21 20:54:00,
2013-04-21 15:59:00,67.4,36.5,30.18,NE,44,0.0,0.0,32,0.00,,---,0.00,VWS V14.01,2013-04-21 20:59:00,
2013-04-21 16:04:00,67.4,35.7,30.18,NE,55,0.0,0.0,31,0.00,,---,0.00,VWS V14.01,2013-04-21 21:04:00,
2013-04-21 16:09:00,67.5,36.6,30.18,ENE,73,0.0,0.0,32,0.00,,---,0.00,VWS V14.01,2013-04-21 21:09:00,
2013-04-21 16:14:00,68.0,38.6,30.18,NE,44,0.0,0.0,34,0.00,,---,0.00,VWS V14.01,2013-04-21 21:14:00,
2013-04-21 16:19:00,69.1,38.0,30.18,ENE,71,0.0,0.0,32,0.00,,---,0.00,VWS V14.01,2013-04-21 21:19:00,
2013-04-21 16:24:00,69.5,37.6,30.18,ENE,65,0.0,0.0,31,0.00,,---,0.00,VWS V14.01,2013-04-21 21:24:00,
2013-04-21 16:29:00,70.0,38.0,30.18,ENE,58,0.0,0.0,31,0.00,,---,0.00,VWS V14.01,2013-04-21 21:29:00,
2013-04-21 16:34:00,70.4,39.2,30.18,North,360,0.0,0.0,32,0.00,,---,0.00,VWS V14.01,2013-04-21 21:34:00,
2013-04-21 16:39:00,70.5,37.6,30.18,NE,56,0.0,0.0,30,0.00,,---,0.00,VWS V14.01,2013-04-21 21:39:00,
2013-04-21 16:44:00,69.9,37.9,30.17,ENE,65,0.0,0.0,31,0.00,,---,0.00,VWS V14.01,2013-04-21 21:44:00,
2013-04-21 16:49:00,69.5,36.7,30.18,ENE,61,0.0,0.0,30,0.00,,---,0.00,VWS V14.01,2013-04-21 21:49:00,
2013-04-21 16:54:00,69.3,38.2,30.18,ENE,59,0.0,0.0,32,0.00,,---,0.00,VWS V14.01,2013-04-21 21:54:00,
2013-04-21 16:59:00,69.4,35.8,30.17,NE,44,0.0,0.0,29,0.00,,---,0.00,VWS V14.01,2013-04-21 21:59:00,
2013-04-21 17:04:00,69.8,37.8,30.17,ENE,71,0.0,0.0,31,0.00,,---,0.00,VWS V14.01,2013-04-21 22:04:00,
2013-04-21 17:09:00,70.1,36.4,30.17,NE,56,0.0,0.0,29,0.00,,---,0.00,VWS V14.01,2013-04-21 22:09:00,
2013-04-21 17:14:00,69.9,36.2,30.17,NE,49,0.0,0.0,29,0.00,,---,0.00,VWS V14.01,2013-04-21 22:14:00,
2013-04-21 17:19:00,69.7,36.9,30.17,NE,40,0.0,0.0,30,0.00,,---,0.00,VWS V14.01,2013-04-21 22:19:00,
2013-04-21 17:24:00,69.5,35.9,30.17,NE,36,0.0,0.0,29,0.00,,---,0.00,VWS V14.01,2013-04-21 22:24:00,
2013-04-21 17:29:00,69.5,36.7,30.17,NNE,16,0.0,0.0,30,0.00,,---,0.00,VWS V14.01,2013-04-21 22:29:00,
2013-04-21 17:34:00,69.6,37.7,30.17,ENE,67,0.0,0.0,31,0.00,,---,0.00,VWS V14.01,2013-04-21 22:34:00,
2013-04-21 17:39:00,69.6,36.0,30.17,NNE,22,0.0,0.0,29,0.00,,---,0.00,VWS V14.01,2013-04-21 22:39:00,
2013-04-21 17:44:00,69.5,35.9,30.17,ENE,59,0.0,0.0,29,0.00,,---,0.00,VWS V14.01,2013-04-21 22:44:00,
2013-04-21 17:49:00,69.2,35.6,30.17,ENE,65,0.0,0.0,29,0.00,,---,0.00,VWS V14.01,2013-04-21 22:49:00,
2013-04-21 17:54:00,69.0,36.3,30.17,NE,56,0.0,0.0,30,0.00,,---,0.00,VWS V14.01,2013-04-21 22:54:00,
2013-04-21 17:59:00,68.8,37.0,30.17,NE,43,0.0,0.0,31,0.00,,---,0.00,VWS V14.01,2013-04-21 22:59:00,
2013-04-21 18:04:00,68.6,36.8,30.17,NE,45,0.0,0.0,31,0.00,,---,0.00,VWS V14.01,2013-04-21 23:04:00,
2013-04-21 18:09:00,68.3,36.5,30.17,ENE,78,0.0,0.0,31,0.00,,---,0.00,VWS V14.01,2013-04-21 23:09:00,
2013-04-21 18:14:00,68.0,35.4,30.17,NE,51,0.0,0.0,30,0.00,,---,0.00,VWS V14.01,2013-04-21 23:14:00,
2013-04-21 18:19:00,68.0,37.1,30.17,NE,53,0.0,0.0,32,0.00,,---,0.00,VWS V14.01,2013-04-21 23:19:00,
2013-04-21 18:24:00,68.0,36.3,30.17,NE,49,0.0,0.0,31,0.00,,---,0.00,VWS V14.01,2013-04-21 23:24:00,
2013-04-21 18:29:00,67.8,35.3,30.17,NE,56,0.0,0.0,30,0.00,,---,0.00,VWS V14.01,2013-04-21 23:29:00,
2013-04-21 18:34:00,67.6,36.7,30.17,NE,51,0.0,0.0,32,0.00,,---,0.00,VWS V14.01,2013-04-21 23:34:00,
2013-04-21 18:39:00,67.3,36.5,30.16,ENE,59,0.0,0.0,32,0.00,,---,0.00,VWS V14.01,2013-04-21 23:39:00,
2013-04-21 18:44:00,67.1,36.3,30.16,NE,49,0.0,0.0,32,0.00,,---,0.00,VWS V14.01,2013-04-21 23:44:00,
2013-04-21 18:49:00,66.9,36.1,30.16,NE,43,0.0,0.0,32,0.00,,---,0.00,VWS V14.01,2013-04-21 23:49:00,
2013-04-21 18:54:00,66.8,36.0,30.16,NE,55,0.0,0.0,32,0.00,,---,0.00,VWS V14.01,2013-04-21 23:54:00,
2013-04-21 18:59:00,66.8,36.0,30.17,ENE,59,0.0,0.0,32,0.00,,---,0.00,VWS V14.01,2013-04-21 23:59:00,
2013-04-21 19:04:00,66.9,36.9,30.16,NE,55,0.0,0.0,33,0.00,,---,0.00,VWS V14.01,2013-04-22 00:04:00,
2013-04-21 19:09:00,66.9,36.9,30.16,NE,54,0.0,0.0,33,0.00,,---,0.00,VWS V14.01,2013-04-22 00:09:00,
2013-04-21 19:14:00,66.7,36.7,30.16,NE,54,0.0,0.0,33,0.00,,---,0.00,VWS V14.01,2013-04-22 00:14:00,
2013-04-21 19:19:00,66.3,37.1,30.16,ENE,61,0.0,0.0,34,0.00,,---,0.00,VWS V14.01,2013-04-22 00:19:00,
2013-04-21 19:24:00,66.1,37.7,30.16,NE,51,0.0,0.0,35,0.00,,---,0.00,VWS V14.01,2013-04-22 00:24:00,
2013-04-21 19:29:00,65.7,38.0,30.16,NE,51,0.0,0.0,36,0.00,,---,0.00,VWS V14.01,2013-04-22 00:29:00,
2013-04-21 19:34:00,65.3,38.4,30.16,NE,51,0.0,0.0,37,0.00,,---,0.00,VWS V14.01,2013-04-22 00:34:00,
2013-04-21 19:39:00,64.9,38.7,30.16,NE,51,0.0,0.0,38,0.00,,---,0.00,VWS V14.01,2013-04-22 00:39:00,
2013-04-21 19:44:00,64.5,38.3,30.16,NE,51,0.0,0.0,38,0.00,,---,0.00,VWS V14.01,2013-04-22 00:44:00,
2013-04-21 19:49:00,64.1,38.0,30.17,NE,51,0.0,0.0,38,0.00,,---,0.00,VWS V14.01,2013-04-22 00:49:00,
2013-04-21 19:54:00,63.7,38.3,30.17,NE,51,0.0,0.0,39,0.00,,---,0.00,VWS V14.01,2013-04-22 00:54:00,
2013-04-21 19:59:00,63.3,38.6,30.17,NE,51,0.0,0.0,40,0.00,,---,0.00,VWS V14.01,2013-04-22 00:59:00,
2013-04-21 20:04:00,63.0,39.6,30.17,NE,51,0.0,0.0,42,0.00,,---,0.00,VWS V14.01,2013-04-22 01:04:00,
2013-04-21 20:09:00,62.7,40.5,30.17,NE,51,0.0,0.0,44,0.00,,---,0.00,VWS V14.01,2013-04-22 01:09:00,
2013-04-21 20:14:00,62.4,41.4,30.17,NE,51,0.0,0.0,46,0.00,,---,0.00,VWS V14.01,2013-04-22 01:14:00,
2013-04-21 20:19:00,62.0,41.6,30.17,NE,51,0.0,0.0,47,0.00,,---,0.00,VWS V14.01,2013-04-22 01:19:00,
2013-04-21 20:24:00,61.6,42.3,30.17,NE,51,0.0,0.0,49,0.00,,---,0.00,VWS V14.01,2013-04-22 01:24:00,
2013-04-21 20:29:00,61.1,42.3,30.17,NE,51,0.0,0.0,50,0.00,,---,0.00,VWS V14.01,2013-04-22 01:29:00,
2013-04-21 20:34:00,60.7,42.5,30.17,NE,51,0.0,0.0,51,0.00,,---,0.00,VWS V14.01,2013-04-22 01:34:00,
2013-04-21 20:39:00,60.2,42.5,30.17,NE,51,0.0,0.0,52,0.00,,---,0.00,VWS V14.01,2013-04-22 01:39:00,
2013-04-21 20:44:00,59.8,42.7,30.17,NE,51,0.0,0.0,53,0.00,,---,0.00,VWS V14.01,2013-04-22 01:44:00,
2013-04-21 20:49:00,59.4,42.3,30.17,NE,51,0.0,0.0,53,0.00,,---,0.00,VWS V14.01,2013-04-22 01:49:00,
2013-04-21 20:54:00,59.2,42.6,30.18,NE,51,0.0,0.0,54,0.00,,---,0.00,VWS V14.01,2013-04-22 01:54:00,
2013-04-21 20:59:00,58.9,42.3,30.18,NE,51,0.0,0.0,54,0.00,,---,0.00,VWS V14.01,2013-04-22 01:59:00,
2013-04-21 21:04:00,58.6,42.5,30.18,NE,51,0.0,0.0,55,0.00,,---,0.00,VWS V14.01,2013-04-22 02:04:00,
2013-04-21 21:09:00,58.4,42.3,30.18,NE,51,0.0,0.0,55,0.00,,---,0.00,VWS V14.01,2013-04-22 02:09:00,
2013-04-21 21:14:00,58.2,42.1,30.18,NE,51,0.0,0.0,55,0.00,,---,0.00,VWS V14.01,2013-04-22 02:14:00,
2013-04-21 21:19:00,58.2,42.1,30.18,NNE,19,0.0,0.0,55,0.00,,---,0.00,VWS V14.01,2013-04-22 02:19:00,
2013-04-21 21:24:00,58.0,41.9,30.19,NNE,19,0.0,0.0,55,0.00,,---,0.00,VWS V14.01,2013-04-22 02:24:00,
2013-04-21 21:29:00,57.9,41.8,30.19,NNE,19,0.0,0.0,55,0.00,,---,0.00,VWS V14.01,2013-04-22 02:29:00,
2013-04-21 21:34:00,57.7,41.7,30.19,NNE,19,0.0,0.0,55,0.00,,---,0.00,VWS V14.01,2013-04-22 02:34:00,
2013-04-21 21:39:00,57.7,42.1,30.19,NNE,31,0.0,0.0,56,0.00,,---,0.00,VWS V14.01,2013-04-22 02:39:00,
2013-04-21 21:44:00,57.6,42.0,30.19,NNE,33,0.0,0.0,56,0.00,,---,0.00,VWS V14.01,2013-04-22 02:44:00,
2013-04-21 21:49:00,57.4,41.8,30.19,NE,34,0.0,0.0,56,0.00,,---,0.00,VWS V14.01,2013-04-22 02:49:00,
2013-04-21 21:54:00,57.3,41.8,30.19,NE,36,0.0,0.0,56,0.00,,---,0.00,VWS V14.01,2013-04-22 02:54:00,
2013-04-21 21:59:00,57.1,42.0,30.19,NE,35,0.0,0.0,57,0.00,,---,0.00,VWS V14.01,2013-04-22 02:59:00,
2013-04-21 22:04:00,57.0,41.5,30.19,NE,37,0.0,0.0,56,0.00,,---,0.00,VWS V14.01,2013-04-22 03:04:00,
2013-04-21 22:09:00,56.9,41.4,30.19,NE,37,0.0,0.0,56,0.00,,---,0.00,VWS V14.01,2013-04-22 03:09:00,
2013-04-21 22:14:00,56.9,41.4,30.19,NE,43,0.0,0.0,56,0.00,,---,0.00,VWS V14.01,2013-04-22 03:14:00,
2013-04-21 22:19:00,56.9,40.9,30.18,NE,49,0.0,0.0,55,0.00,,---,0.00,VWS V14.01,2013-04-22 03:19:00,
2013-04-21 22:24:00,57.0,41.0,30.18,NE,41,0.0,0.0,55,0.00,,---,0.00,VWS V14.01,2013-04-22 03:24:00,
2013-04-21 22:29:00,57.0,41.0,30.18,NE,35,0.0,0.0,55,0.00,,---,0.00,VWS V14.01,2013-04-22 03:29:00,
2013-04-21 22:34:00,57.0,41.0,30.18,NNE,30,0.0,0.0,55,0.00,,---,0.00,VWS V14.01,2013-04-22 03:34:00,
2013-04-21 22:39:00,56.9,40.9,30.18,NE,53,0.0,0.0,55,0.00,,---,0.00,VWS V14.01,2013-04-22 03:39:00,
2013-04-21 22:44:00,56.9,40.9,30.18,NE,40,0.0,0.0,55,0.00,,---,0.00,VWS V14.01,2013-04-22 03:44:00,
2013-04-21 22:49:00,56.8,41.3,30.18,NE,35,0.0,0.0,56,0.00,,---,0.00,VWS V14.01,2013-04-22 03:49:00,
2013-04-21 22:54:00,56.6,41.1,30.18,NE,35,0.0,0.0,56,0.00,,---,0.00,VWS V14.01,2013-04-22 03:54:00,
2013-04-21 22:59:00,56.3,41.3,30.18,NE,44,0.0,0.0,57,0.00,,---,0.00,VWS V14.01,2013-04-22 03:59:00,
2013-04-21 23:01:00,56.2,41.2,30.18,NE,44,0.0,0.0,57,0.00,,---,0.00,VWS V14.01,2013-04-22 04:01:00,
2013-04-21 23:06:00,56.0,41.0,30.18,NE,44,0.0,0.0,57,0.00,,---,0.00,VWS V14.01,2013-04-22 04:06:00,
2013-04-21 23:11:00,55.8,41.3,30.18,NE,36,0.0,0.0,58,0.00,,---,0.00,VWS V14.01,2013-04-22 04:11:00,
2013-04-21 23:16:00,55.7,41.2,30.18,NE,47,0.0,0.0,58,0.00,,---,0.00,VWS V14.01,2013-04-22 04:16:00,
2013-04-21 23:21:00,55.5,40.5,30.18,NE,41,0.0,0.0,57,0.00,,---,0.00,VWS V14.01,2013-04-22 04:21:00,
2013-04-21 23:26:00,55.4,40.4,30.18,NE,55,0.0,0.0,57,0.00,,---,0.00,VWS V14.01,2013-04-22 04:26:00,
2013-04-21 23:31:00,55.2,40.2,30.18,NE,44,0.0,0.0,57,0.00,,---,0.00,VWS V14.01,2013-04-22 04:31:00,
2013-04-21 23:36:00,55.2,40.2,30.18,ENE,59,0.0,0.0,57,0.00,,---,0.00,VWS V14.01,2013-04-22 04:36:00,
2013-04-21 23:41:00,55.2,40.2,30.18,NE,37,0.0,0.0,57,0.00,,---,0.00,VWS V14.01,2013-04-22 04:41:00,
2013-04-21 23:46:00,55.2,40.2,30.18,NE,50,0.0,0.0,57,0.00,,---,0.00,VWS V14.01,2013-04-22 04:46:00,
2013-04-21 23:51:00,55.2,40.2,30.18,NE,48,0.0,0.0,57,0.00,,---,0.00,VWS V14.01,2013-04-22 04:51:00,
2013-04-21 23:56:00,55.1,40.2,30.18,NE,46,0.0,0.0,57,0.00,,---,0.00,VWS V14.01,2013-04-22 04:56:00,